Woodinville, Washington, United States (98072)
Lat: 47.75N, Lon: 122.16W
Wx Zone: WAZ505
Local Info
Past Weather Observations for Yesterday

NOTE: This archive is for the closest National Weather Service station to Woodinville. Information may differ from the station used for current weather conditions.

Click here for Long-term Archive

Time Weather Temperature Dewpoint Humidity Pressure Winds Precip Visibility
23:53
Overcast
50°F / 10°C 46°F / 8°C 88% 30.01 in
(1016 mb)
SSE 20.7 mph
(SSE 33 kph)
- 10SM
23:08
Overcast
52°F / 11°C 46°F / 8°C 82% 30.01 in
(1016 mb)
S 26.5 mph
(S 43 kph)
- 10SM
22:53
Overcast
50°F / 10°C 46°F / 8°C 88% 30.01 in
(1016 mb)
S 21.9 mph
(S 35 kph)
0.02 in
(0.51 mm)
10SM
21:53
Overcast
Light Rain
52°F / 11°C 46°F / 8°C 82% 29.98 in
(1015 mb)
S 24.2 mph
(S 39 kph)
0.04 in
(1.02 mm)
8SM
20:53
Overcast
54°F / 12°C 46°F / 8°C 77% 29.95 in
(1014 mb)
S 17.3 mph
(S 28 kph)
0.00 in
(0.00 mm)
10SM
20:01
Overcast
55°F / 13°C 48°F / 9°C 77% 29.95 in
(1014 mb)
S 16.1 mph
(S 26 kph)
- 10SM
19:53
Overcast
55°F / 13°C 48°F / 9°C 77% 29.95 in
(1014 mb)
S 17.3 mph
(S 28 kph)
- 10SM
18:53
Overcast
55°F / 13°C 46°F / 8°C 72% 29.95 in
(1014 mb)
S 17.3 mph
(S 28 kph)
- 10SM
17:53
Mostly Cloudy
59°F / 15°C 46°F / 8°C 63% 29.95 in
(1014 mb)
S 19.6 mph
(S 32 kph)
- 10SM
16:53
Mostly Cloudy
63°F / 17°C 46°F / 8°C 56% 29.95 in
(1014 mb)
S 20.7 mph
(S 33 kph)
- 10SM
15:53
Clear
66°F / 19°C 48°F / 9°C 52% 29.95 in
(1014 mb)
SSE 18.4 mph
(SSE 30 kph)
- 10SM
14:53
Clear
66°F / 19°C 48°F / 9°C 52% 29.95 in
(1014 mb)
SSE 19.6 mph
(SSE 32 kph)
- 10SM
13:53
Clear
66°F / 19°C 50°F / 10°C 56% 29.98 in
(1015 mb)
S 15 mph
(S 24 kph)
- 10SM
12:53
Clear
64°F / 18°C 48°F / 9°C 56% 29.98 in
(1015 mb)
S 19.6 mph
(S 32 kph)
- 10SM
11:53
Clear
64°F / 18°C 52°F / 11°C 64% 30.01 in
(1016 mb)
S 15 mph
(S 24 kph)
- 10SM
10:53
Clear
61°F / 16°C 50°F / 10°C 68% 30.04 in
(1017 mb)
S 12.7 mph
(S 20 kph)
- 10SM
09:53
Clear
57°F / 14°C 50°F / 10°C 77% 30.04 in
(1017 mb)
SSE 9.2 mph
(SSE 15 kph)
- 10SM
08:53
Clear
54°F / 12°C 48°F / 9°C 82% 30.04 in
(1017 mb)
S 8.1 mph
(S 13 kph)
- 10SM
07:53
Clear
52°F / 11°C 48°F / 9°C 88% 30.04 in
(1017 mb)
SSE 5.8 mph
(SSE 9 kph)
- 10SM
06:53
Clear
52°F / 11°C 48°F / 9°C 88% 30.04 in
(1017 mb)
S 5.8 mph
(S 9 kph)
- 10SM
05:53
Clear
50°F / 10°C 46°F / 8°C 88% 30.04 in
(1017 mb)
ESE 3.5 mph
(ESE 6 kph)
- 10SM
04:53
Clear
48°F / 9°C 46°F / 8°C 94% 30.04 in
(1017 mb)
Calm - 10SM
03:53
Clear
50°F / 10°C 46°F / 8°C 88% 30.04 in
(1017 mb)
Calm - 10SM
02:53
Clear
48°F / 9°C 46°F / 8°C 94% 30.06 in
(1018 mb)
Calm - 9SM
01:53
Clear
50°F / 10°C 46°F / 8°C 88% 30.09 in
(1019 mb)
Calm - 10SM
00:53
Clear
50°F / 10°C 46°F / 8°C 88% 30.12 in
(1020 mb)
N 3.5 mph
(N 6 kph)
- 10SM
Time Weather Temperature Dewpoint Humidity Pressure Winds Precip Visibility


Weather for websites

WeatherForYou.com, LLC is not responsible for any damages or problems caused by this service. Current weather conditions are obtained from the closest station including government and personal stations which may have varying degrees of accuracy. Weather forecasts are derived from the NOAA NDFD. Like all things, this site belongs to Jesus Christ... He just trusts me to maintain it. If you have any questions or comments email webmaster@weatherforyou.com

Copyright © 2015, WeatherForYou.com LLC. All rights reserved.